GAP2822 RPUV-RPLL

Flight info

Callsign GAP2822
Flight time 0h 38m
Altitude 32000
Route NGA W9 AKDAP AKDAP7R
Aircraft A320/M-SDE3FGHIRWY/LB1

Departure

Time 2026-04-17 04:25
Airport Virac Airport (RPUV)

Arrival

Time 2026-04-17 05:04
Airport Ninoy Aquino International Airport (RPLL)
Time Latitude Longitude Altitude Speed Heading
2026-04-17 04:16 13.57974 124.21227 106 ft 0 kts 180°
2026-04-17 04:22 13.57971 124.21224 108 ft 1 kts 219°
2026-04-17 04:23 13.57980 124.21219 107 ft 1 kts 353°
2026-04-17 04:23 13.58007 124.21231 108 ft 5 kts 15°
2026-04-17 04:23 13.58034 124.21221 108 ft 4 kts 325°
2026-04-17 04:23 13.58054 124.21208 108 ft 2 kts 328°
2026-04-17 04:24 13.58062 124.21203 109 ft 0 kts 328°
2026-04-17 04:24 13.58080 124.21191 109 ft 4 kts 314°
2026-04-17 04:24 13.58072 124.21168 110 ft 2 kts 236°
2026-04-17 04:25 13.58067 124.21158 110 ft 14 kts 237°
2026-04-17 04:25 13.57867 124.20800 115 ft 96 kts 240°
2026-04-17 04:25 13.57432 124.20014 167 ft 149 kts 240°
2026-04-17 04:25 13.56937 124.19111 891 ft 142 kts 240°
2026-04-17 04:26 13.56443 124.18222 1554 ft 144 kts 240°
2026-04-17 04:26 13.55938 124.17304 2047 ft 155 kts 241°
2026-04-17 04:26 13.55370 124.16279 2430 ft 176 kts 240°
2026-04-17 04:26 13.54726 124.15141 2806 ft 197 kts 240°
2026-04-17 04:27 13.53992 124.13864 3169 ft 220 kts 241°
2026-04-17 04:27 13.53429 124.12341 3647 ft 239 kts 263°
2026-04-17 04:27 13.53351 124.10561 4156 ft 260 kts 272°
2026-04-17 04:27 13.53366 124.08657 4924 ft 271 kts 272°
2026-04-17 04:28 13.53389 124.06702 5810 ft 276 kts 273°
2026-04-17 04:28 13.53479 124.04721 6685 ft 280 kts 274°
2026-04-17 04:28 13.53605 124.02711 7499 ft 284 kts 275°
2026-04-17 04:28 13.53746 124.00662 8296 ft 290 kts 275°
2026-04-17 04:29 13.53890 123.98601 9090 ft 296 kts 275°
2026-04-17 04:29 13.54035 123.96472 9868 ft 302 kts 274°
2026-04-17 04:29 13.54175 123.94272 10327 ft 319 kts 274°
2026-04-17 04:29 13.54322 123.91928 10716 ft 336 kts 274°
2026-04-17 04:30 13.54473 123.89508 11379 ft 342 kts 275°
2026-04-17 04:30 13.54624 123.87062 12118 ft 345 kts 275°
2026-04-17 04:30 13.54773 123.84594 12860 ft 348 kts 275°
2026-04-17 04:30 13.54922 123.82101 13597 ft 351 kts 275°
2026-04-17 04:31 13.55071 123.79623 14243 ft 354 kts 275°
2026-04-17 04:31 13.55227 123.77092 14857 ft 357 kts 275°
2026-04-17 04:31 13.55385 123.74533 15462 ft 361 kts 275°
2026-04-17 04:31 13.55543 123.71950 16059 ft 364 kts 275°
2026-04-17 04:32 13.55704 123.69335 16649 ft 368 kts 275°
2026-04-17 04:32 13.55863 123.66702 17231 ft 372 kts 275°
2026-04-17 04:32 13.56022 123.64039 17801 ft 375 kts 275°
2026-04-17 04:32 13.56182 123.61344 18349 ft 379 kts 275°
2026-04-17 04:33 13.56344 123.58625 18834 ft 383 kts 275°
2026-04-17 04:33 13.56505 123.55924 19333 ft 386 kts 275°
2026-04-17 04:33 13.56671 123.53161 19838 ft 389 kts 275°
2026-04-17 04:33 13.56839 123.50383 20355 ft 391 kts 275°
2026-04-17 04:34 13.57178 123.44756 21374 ft 398 kts 275°
2026-04-17 04:34 13.57347 123.41910 21869 ft 401 kts 274°
2026-04-17 04:34 13.57515 123.39040 22365 ft 404 kts 274°
2026-04-17 04:35 13.57684 123.36146 22851 ft 407 kts 274°
2026-04-17 04:35 13.57854 123.33271 23342 ft 410 kts 274°
2026-04-17 04:35 13.58030 123.30334 23778 ft 413 kts 275°
2026-04-17 04:35 13.58443 123.27406 24193 ft 415 kts 284°
2026-04-17 04:36 13.59356 123.24594 24602 ft 416 kts 295°
2026-04-17 04:36 13.60624 123.21912 25012 ft 418 kts 297°
2026-04-17 04:36 13.61917 123.19221 25399 ft 421 kts 297°
2026-04-17 04:36 13.63216 123.16511 25796 ft 424 kts 297°
2026-04-17 04:37 13.64504 123.13823 26167 ft 427 kts 297°
2026-04-17 04:37 13.65818 123.11077 26541 ft 429 kts 296°
2026-04-17 04:37 13.67137 123.08314 26926 ft 431 kts 296°
2026-04-17 04:37 13.68458 123.05539 27288 ft 434 kts 296°
2026-04-17 04:38 13.69787 123.02747 27660 ft 436 kts 296°
2026-04-17 04:38 13.71122 122.99941 28015 ft 438 kts 296°
2026-04-17 04:38 13.72465 122.97123 28359 ft 440 kts 296°
2026-04-17 04:38 13.73817 122.94289 28702 ft 442 kts 296°
2026-04-17 04:39 13.75177 122.91438 29036 ft 445 kts 296°
2026-04-17 04:39 13.76543 122.88571 29356 ft 448 kts 296°
2026-04-17 04:39 13.77895 122.85731 29682 ft 450 kts 296°
2026-04-17 04:39 13.79276 122.82831 29998 ft 452 kts 295°
2026-04-17 04:40 13.80660 122.79921 30290 ft 454 kts 295°
2026-04-17 04:40 13.82049 122.76997 30572 ft 455 kts 296°
2026-04-17 04:40 13.83441 122.74062 30842 ft 457 kts 295°
2026-04-17 04:40 13.84840 122.71118 31113 ft 459 kts 296°
2026-04-17 04:41 13.86244 122.68166 31371 ft 461 kts 295°
2026-04-17 04:41 13.87632 122.65240 31709 ft 460 kts 296°
2026-04-17 04:41 13.89030 122.62285 31910 ft 460 kts 295°
2026-04-17 04:41 13.90441 122.59303 31955 ft 467 kts 295°
2026-04-17 04:42 13.93323 122.53214 31953 ft 478 kts 295°
2026-04-17 04:42 13.96254 122.47041 31953 ft 481 kts 295°
2026-04-17 04:43 13.99191 122.40845 31953 ft 481 kts 295°
2026-04-17 04:43 14.02101 122.34686 31953 ft 481 kts 295°
2026-04-17 04:44 14.05025 122.28486 31956 ft 481 kts 295°
2026-04-17 04:44 14.07955 122.22285 31912 ft 482 kts 295°
2026-04-17 04:45 14.09422 122.19184 31667 ft 482 kts 295°
2026-04-17 04:45 14.10888 122.16079 31437 ft 482 kts 295°
2026-04-17 04:45 14.12354 122.12968 31203 ft 483 kts 295°
2026-04-17 04:45 14.13822 122.09851 30831 ft 483 kts 295°
2026-04-17 04:46 14.15262 122.06792 29728 ft 478 kts 295°
2026-04-17 04:46 14.16679 122.03782 29285 ft 453 kts 295°
2026-04-17 04:46 14.18010 122.00954 29099 ft 426 kts 295°
2026-04-17 04:46 14.19281 121.98259 28632 ft 410 kts 295°
2026-04-17 04:47 14.20515 121.95638 28391 ft 405 kts 295°
2026-04-17 04:47 14.21735 121.93042 28136 ft 401 kts 295°
2026-04-17 04:47 14.22928 121.90455 27884 ft 400 kts 294°
2026-04-17 04:47 14.23990 121.87817 27633 ft 397 kts 285°
2026-04-17 04:48 14.24405 121.85057 27397 ft 395 kts 272°
2026-04-17 04:48 14.24512 121.82229 27153 ft 395 kts 271°
2026-04-17 04:48 14.24604 121.79407 26908 ft 394 kts 271°
2026-04-17 04:48 14.24687 121.76595 26665 ft 391 kts 271°
2026-04-17 04:49 14.24767 121.73793 26426 ft 391 kts 271°
2026-04-17 04:49 14.24849 121.70993 26190 ft 391 kts 271°
2026-04-17 04:49 14.24934 121.68195 25956 ft 390 kts 271°
2026-04-17 04:49 14.25021 121.65406 25723 ft 389 kts 272°
2026-04-17 04:50 14.25109 121.62626 25214 ft 391 kts 272°
2026-04-17 04:50 14.25198 121.59836 24659 ft 394 kts 272°
2026-04-17 04:50 14.25289 121.57036 24294 ft 389 kts 272°
2026-04-17 04:50 14.25376 121.54258 23848 ft 388 kts 272°
2026-04-17 04:51 14.25461 121.51490 23434 ft 385 kts 272°
2026-04-17 04:51 14.25542 121.48748 23011 ft 379 kts 272°
2026-04-17 04:51 14.25620 121.46060 22266 ft 373 kts 272°
2026-04-17 04:51 14.25696 121.43406 21513 ft 368 kts 273°
2026-04-17 04:52 14.25771 121.40789 20787 ft 363 kts 273°
2026-04-17 04:52 14.25848 121.38203 20093 ft 359 kts 273°
2026-04-17 04:52 14.25927 121.35652 19421 ft 354 kts 274°
2026-04-17 04:52 14.26004 121.33167 18780 ft 350 kts 274°
2026-04-17 04:53 14.26079 121.30671 18120 ft 346 kts 274°
2026-04-17 04:53 14.26151 121.28208 17388 ft 342 kts 274°
2026-04-17 04:53 14.26222 121.25772 16683 ft 338 kts 274°
2026-04-17 04:55 14.26816 121.09424 12070 ft 317 kts 273°
2026-04-17 04:55 14.26896 121.07163 11394 ft 315 kts 273°
2026-04-17 04:55 14.26972 121.04916 10738 ft 312 kts 272°
2026-04-17 04:56 14.27047 121.02704 10206 ft 306 kts 272°
2026-04-17 04:56 14.27121 121.00523 9598 ft 302 kts 271°
2026-04-17 04:56 14.27194 120.98377 8947 ft 298 kts 271°
2026-04-17 04:56 14.27269 120.96249 8284 ft 295 kts 271°
2026-04-17 04:57 14.27341 120.94175 7633 ft 292 kts 271°
2026-04-17 04:57 14.27413 120.92093 6962 ft 290 kts 271°
2026-04-17 04:57 14.27611 120.90043 6322 ft 287 kts 286°
2026-04-17 04:57 14.28533 120.88291 5980 ft 270 kts 313°
2026-04-17 04:58 14.29951 120.87140 5865 ft 254 kts 332°
2026-04-17 04:58 14.31455 120.86263 5740 ft 243 kts 332°
2026-04-17 04:58 14.32907 120.85419 5535 ft 237 kts 332°
2026-04-17 04:58 14.34341 120.84589 5235 ft 236 kts 332°
2026-04-17 04:59 14.35785 120.83774 4901 ft 237 kts 338°
2026-04-17 04:59 14.37349 120.83345 4565 ft 234 kts 358°
2026-04-17 04:59 14.38955 120.83479 4241 ft 231 kts 17°
2026-04-17 04:59 14.40435 120.84154 3737 ft 237 kts 37°
2026-04-17 05:00 14.41617 120.85364 3176 ft 242 kts 58°
2026-04-17 05:00 14.42452 120.86839 2818 ft 234 kts 61°
2026-04-17 05:00 14.43235 120.88241 2524 ft 216 kts 60°
2026-04-17 05:00 14.43956 120.89534 2260 ft 203 kts 60°
2026-04-17 05:01 14.44620 120.90725 2037 ft 186 kts 60°
2026-04-17 05:01 14.45235 120.91829 1781 ft 169 kts 61°
2026-04-17 05:01 14.45791 120.92829 1585 ft 155 kts 61°
2026-04-17 05:01 14.46311 120.93763 1384 ft 146 kts 61°
2026-04-17 05:02 14.46808 120.94656 1213 ft 142 kts 61°
2026-04-17 05:02 14.47295 120.95532 1028 ft 140 kts 61°
2026-04-17 05:02 14.47782 120.96410 837 ft 143 kts 60°
2026-04-17 05:02 14.48273 120.97300 677 ft 143 kts 59°
2026-04-17 05:03 14.48762 120.98170 525 ft 142 kts 59°
2026-04-17 05:03 14.49253 120.99053 333 ft 142 kts 58°
2026-04-17 05:03 14.49741 120.99931 178 ft 141 kts 58°
2026-04-17 05:03 14.50219 121.00785 68 ft 127 kts 57°
2026-04-17 05:04 14.50590 121.01452 68 ft 79 kts 60°
2026-04-17 05:04 14.50726 121.01679 64 ft 17 kts 43°
2026-04-17 05:04 14.50798 121.01743 68 ft 11 kts 38°
2026-04-17 05:04 14.50841 121.01777 67 ft 6 kts 37°
2026-04-17 05:05 14.50881 121.01789 61 ft 9 kts 342°